When you browse on this site, cookies collect data to enhance your experience and personalize the content and advertising you see.
Visit our Privacy Policy to learn more. By continuing to use the site, you agree to this use of cookies and data.
  • In Portugal
  • List of Countries
  • For 7 days
  • Water Temperature
  • Satellite Maps
  • Weather Map
  • Weather Widgets
  • user-avatar
    Login

    Hourly Weather Shodnevo

    Today, 18 February, Monday

    Time Temperature Precipitation Wind Pressure Humidity
    00:00 -7°C° 0.5 mm 5 mps 717 mmHg 95%
    01:00 -7°C° 0.3 mm 5 mps 717 mmHg 95%
    02:00 -7°C° 0.3 mm 4 mps 717 mmHg 96%
    03:00 -6°C° 0 mm 3 mps 716 mmHg 96%
    04:00 -6°C° 0.2 mm 3 mps 716 mmHg 96%
    05:00 -5°C° 0.2 mm 2 mps 716 mmHg 97%
    06:00 -5°C° 0.2 mm 2 mps 716 mmHg 97%
    07:00 -6°C° 0.1 mm 3 mps 716 mmHg 96%
    08:00 -5°C° 0.1 mm 4 mps 716 mmHg 95%
    09:00 -6°C° 0.1 mm 5 mps 716 mmHg 94%
    10:00 -6°C° 0.1 mm 5 mps 717 mmHg 93%
    11:00 -6°C° 0.1 mm 5 mps 717 mmHg 93%
    12:00 -6°C° 0.1 mm 6 mps 717 mmHg 92%
    13:00 -5°C° 0.1 mm 6 mps 718 mmHg 91%
    14:00 -5°C° 0.1 mm 6 mps 718 mmHg 91%
    15:00 -5°C° 0.1 mm 6 mps 718 mmHg 91%
    16:00 -6°C° 0.2 mm 7 mps 719 mmHg 91%
    17:00 -6°C° 0.2 mm 7 mps 720 mmHg 91%
    18:00 -6°C° 0.2 mm 8 mps 721 mmHg 91%
    19:00 -8°C° 0.3 mm 9 mps 721 mmHg 90%
    20:00 -9°C° 0.3 mm 10 mps 722 mmHg 88%
    21:00 -11°C° 0.3 mm 11 mps 723 mmHg 87%
    22:00 -12°C° 0.1 mm 11 mps 724 mmHg 86%
    23:00 -13°C° 0.1 mm 11 mps 725 mmHg 86%

    Tomorrow, 19 February, Tuesday

    Time Temperature Precipitation Wind Pressure Humidity
    00:00 -14°C° 0.1 mm 10 mps 726 mmHg 85%
    01:00 -15°C° 0 mm 10 mps 727 mmHg 85%
    02:00 -17°C° 0 mm 10 mps 728 mmHg 86%
    03:00 -18°C° 0 mm 10 mps 729 mmHg 86%
    04:00 -20°C° 0 mm 10 mps 729 mmHg 86%
    05:00 -21°C° 0 mm 9 mps 730 mmHg 86%
    06:00 -22°C° 0 mm 9 mps 731 mmHg 87%
    07:00 -24°C° 0 mm 9 mps 732 mmHg 87%
    08:00 -24°C° 0 mm 9 mps 733 mmHg 87%
    09:00 -24°C° 0 mm 9 mps 734 mmHg 87%
    10:00 -23°C° 0 mm 8 mps 734 mmHg 86%
    11:00 -22°C° 0 mm 8 mps 735 mmHg 85%
    12:00 -22°C° 0 mm 8 mps 735 mmHg 84%
    13:00 -20°C° 0 mm 7 mps 736 mmHg 84%
    14:00 -20°C° 0 mm 6 mps 736 mmHg 84%
    15:00 -20°C° 0 mm 6 mps 737 mmHg 84%
    16:00 -20°C° 0 mm 5 mps 737 mmHg 87%
    17:00 -20°C° 0 mm 4 mps 737 mmHg 89%
    18:00 -22°C° 0 mm 3 mps 738 mmHg 92%
    19:00 -21°C° 0 mm 3 mps 738 mmHg 91%
    20:00 -19°C° 0 mm 2 mps 738 mmHg 90%
    21:00 -16°C° 0 mm 1 mps 738 mmHg 89%
    22:00 -16°C° 0 mm 1 mps 738 mmHg 88%
    23:00 -16°C° 0 mm 1 mps 738 mmHg 88%

    Day after tomorrow, 20 February, Wednesday

    Time Temperature Precipitation Wind Pressure Humidity
    00:00 -15°C° 0 mm 1 mps 738 mmHg 87%
    01:00 -17°C° 0 mm 2 mps 738 mmHg 89%
    02:00 -17°C° 0 mm 2 mps 737 mmHg 92%
    03:00 -17°C° 0 mm 3 mps 737 mmHg 94%
    04:00 -17°C° 0 mm 3 mps 737 mmHg 95%
    05:00 -16°C° 0 mm 3 mps 737 mmHg 96%
    06:00 -16°C° 0 mm 3 mps 737 mmHg 97%
    07:00 -15°C° 0 mm 3 mps 737 mmHg 97%
    08:00 -14°C° 0 mm 3 mps 737 mmHg 96%
    09:00 -14°C° 0 mm 4 mps 738 mmHg 96%
    10:00 -12°C° 0 mm 4 mps 737 mmHg 96%
    11:00 -13°C° 0 mm 5 mps 737 mmHg 95%
    12:00 -12°C° 0 mm 5 mps 737 mmHg 95%
    13:00 -12°C° 0 mm 6 mps 737 mmHg 95%
    14:00 -12°C° 0 mm 6 mps 736 mmHg 94%
    15:00 -11°C° 0 mm 6 mps 736 mmHg 94%
    16:00 -13°C° 0 mm 7 mps 736 mmHg 94%
    17:00 -13°C° 0 mm 7 mps 735 mmHg 94%
    18:00 -14°C° 0 mm 7 mps 735 mmHg 94%
    19:00 -13°C° 0.1 mm 7 mps 735 mmHg 94%
    20:00 -12°C° 0.1 mm 6 mps 735 mmHg 94%
    21:00 -11°C° 0.1 mm 6 mps 735 mmHg 94%
    22:00 -11°C° 0 mm 6 mps 734 mmHg 94%
    23:00 -10°C° 0 mm 6 mps 734 mmHg 93%

    21 February, Thursday

    Time Temperature Precipitation Wind Pressure Humidity
    00:00 -10°C° 0 mm 6 mps 734 mmHg 93%
    01:00 -10°C° 0.1 mm 6 mps 734 mmHg 93%
    02:00 -11°C° 0.1 mm 7 mps 733 mmHg 94%
    03:00 -11°C° 0.1 mm 7 mps 733 mmHg 94%
    04:00 -11°C° 0.1 mm 7 mps 733 mmHg 94%
    05:00 -11°C° 0.1 mm 7 mps 733 mmHg 94%
    06:00 -11°C° 0.1 mm 7 mps 733 mmHg 94%
    07:00 -11°C° 0.1 mm 7 mps 733 mmHg 94%
    08:00 -11°C° 0.1 mm 7 mps 733 mmHg 94%
    09:00 -11°C° 0.1 mm 7 mps 733 mmHg 94%
    10:00 -9°C° 0.1 mm 7 mps 733 mmHg 94%
    11:00 -9°C° 0.1 mm 7 mps 733 mmHg 93%
    12:00 -8°C° 0.1 mm 7 mps 733 mmHg 93%
    13:00 -8°C° 0.2 mm 7 mps 733 mmHg 93%
    14:00 -8°C° 0.2 mm 7 mps 732 mmHg 93%
    15:00 -8°C° 0.2 mm 7 mps 732 mmHg 93%
    16:00 -8°C° 0.4 mm 7 mps 732 mmHg 93%
    17:00 -8°C° 0.4 mm 7 mps 732 mmHg 93%
    18:00 -8°C° 0.4 mm 8 mps 731 mmHg 93%
    19:00 -8°C° 0.3 mm 7 mps 731 mmHg 93%
    20:00 -7°C° 0.3 mm 7 mps 731 mmHg 93%
    21:00 -7°C° 0.3 mm 7 mps 730 mmHg 93%
    22:00 -6°C° 0.3 mm 6 mps 730 mmHg 93%
    23:00 -6°C° 0.3 mm 6 mps 729 mmHg 94%

    22 February, Friday

    Time Temperature Precipitation Wind Pressure Humidity
    00:00 -5°C° 0.3 mm 5 mps 729 mmHg 94%
    01:00 -5°C° 0.4 mm 5 mps 729 mmHg 94%
    02:00 -5°C° 0.4 mm 6 mps 728 mmHg 93%
    03:00 -4°C° 0.4 mm 6 mps 728 mmHg 92%
    04:00 -4°C° 0.3 mm 6 mps 728 mmHg 93%
    05:00 -4°C° 0.3 mm 5 mps 727 mmHg 94%
    06:00 -4°C° 0.3 mm 5 mps 727 mmHg 95%
    07:00 -4°C° 0.2 mm 5 mps 727 mmHg 94%
    08:00 -4°C° 0.2 mm 5 mps 727 mmHg 93%
    09:00 -5°C° 0.2 mm 5 mps 727 mmHg 93%
    10:00 -5°C° 0.1 mm 5 mps 727 mmHg 91%
    11:00 -5°C° 0.1 mm 5 mps 727 mmHg 89%
    12:00 -4°C° 0.1 mm 5 mps 727 mmHg 87%
    13:00 -5°C° 0.2 mm 5 mps 728 mmHg 89%
    14:00 -6°C° 0.2 mm 5 mps 728 mmHg 91%
    15:00 -7°C° 0.2 mm 5 mps 728 mmHg 93%
    16:00 -8°C° 0.5 mm 5 mps 728 mmHg 93%
    17:00 -8°C° 0.5 mm 5 mps 729 mmHg 94%
    18:00 -10°C° 0.5 mm 5 mps 730 mmHg 94%
    19:00 -10°C° 0.3 mm 6 mps 730 mmHg 94%
    20:00 -10°C° 0.3 mm 6 mps 731 mmHg 94%
    21:00 -10°C° 0.3 mm 6 mps 732 mmHg 94%
    22:00 -11°C° 0 mm 6 mps 732 mmHg 94%
    23:00 -12°C° 0 mm 6 mps 733 mmHg 94%

    23 February, Saturday

    Time Temperature Precipitation Wind Pressure Humidity
    00:00 -15°C° 0 mm 6 mps 734 mmHg 94%
    01:00 -14°C° 0 mm 5 mps 735 mmHg 94%
    02:00 -15°C° 0 mm 5 mps 735 mmHg 95%
    03:00 -16°C° 0 mm 4 mps 736 mmHg 95%
    04:00 -16°C° 0 mm 4 mps 737 mmHg 96%
    05:00 -17°C° 0 mm 4 mps 738 mmHg 96%
    06:00 -16°C° 0 mm 3 mps 738 mmHg 97%
    07:00 -16°C° 0 mm 3 mps 739 mmHg 96%
    08:00 -16°C° 0 mm 3 mps 740 mmHg 95%
    09:00 -16°C° 0 mm 3 mps 740 mmHg 95%
    10:00 -15°C° 0 mm 2 mps 741 mmHg 93%
    11:00 -15°C° 0 mm 2 mps 741 mmHg 91%
    12:00 -14°C° 0 mm 2 mps 741 mmHg 89%
    13:00 -14°C° 0 mm 2 mps 741 mmHg 90%
    14:00 -15°C° 0 mm 2 mps 742 mmHg 91%
    15:00 -16°C° 0 mm 3 mps 742 mmHg 91%
    16:00 -16°C° 0 mm 2 mps 742 mmHg 93%
    17:00 -17°C° 0 mm 2 mps 742 mmHg 94%
    18:00 -18°C° 0 mm 2 mps 742 mmHg 96%
    19:00 -18°C° 0 mm 1 mps 742 mmHg 97%
    20:00 -19°C° 0 mm 1 mps 743 mmHg 98%
    21:00 -21°C° 0 mm 1 mps 743 mmHg 99%
    22:00 -21°C° 0 mm 1 mps 743 mmHg 99%
    23:00 -22°C° 0 mm 0 mps 743 mmHg 99%
    Show more